GFSMW_sfc_rhum_033.txt.gz
RH
45 48 50 51 50 61 54 50 49 71 72 67 60 62 60 57 58 60 54 51 59 62 64 68 68 69 72 73 73 79 82 75 82 78 70 77 79 77 79 77 74 69 63
48 52 60 69 72 67 56 55 50 53 55 58 58 60 65 58 58 64 61 62 62 62 57 68 69 69 76 77 79 78 81 82 82 87 80 81 71 72 71 75 74 78 82
52 51 55 66 62 62 54 50 52 52 58 59 63 64 65 66 63 61 65 60 60 59 60 64 70 72 76 81 81 80 87 94 88 88 95 96 94 83 73 71 77 87 92
48 51 59 64 63 63 57 53 49 51 54 56 61 64 72 69 66 65 64 62 62 63 59 61 67 74 79 82 88 84 94 94 97 92 72 88 88 89 84 82 69 81 84
50 53 57 56 59 59 59 56 53 52 54 57 60 66 65 65 64 63 64 67 66 62 60 60 71 86 89 91 94 94 91 81 83 83 82 78 84 94 99 90 81 77 82
46 48 53 56 61 64 62 57 53 52 56 59 62 64 66 66 68 68 74 74 71 68 71 78 89 90 92 94 96 94 87 93 89 86 92 93 92 84 89 92 88 90 86
48 47 46 52 56 58 61 53 56 52 52 58 67 69 69 70 70 74 76 73 72 78 91 89 91 94 93 93 92 90 93 94 95 91 85 94 97 94 94 98 98 94 89
41 46 48 52 50 51 54 52 50 49 53 64 64 65 67 72 72 73 72 72 75 91 90 89 90 90 90 92 93 95 96 95 96 96 94 95 92 93 97 92 97 95 89
42 46 48 49 49 48 53 56 51 51 53 54 53 53 57 60 63 68 76 84 81 68 86 88 89 88 89 90 92 96 94 92 95 96 95 96 95 94 92 95 97 99 98
44 44 46 49 52 52 55 54 52 48 44 45 51 51 56 58 70 76 76 75 75 74 76 83 85 81 83 86 91 92 87 90 96 95 96 95 95 94 91 80 89 92 94
43 44 47 52 50 49 49 53 44 42 44 46 50 57 59 64 69 70 74 77 79 75 77 80 75 78 83 81 83 84 84 85 85 82 77 75 71 79 81 79 78 87 88
44 47 49 50 52 52 49 45 43 43 45 46 51 54 57 69 77 79 83 85 88 86 82 78 78 76 80 78 76 74 68 68 67 66 68 65 49 69 71 74 72 73 71
48 52 52 55 53 49 46 43 42 44 42 45 50 54 63 68 76 80 80 83 86 90 87 83 82 77 74 65 61 65 68 69 67 65 66 67 64 65 66 64 70 75 56
60 61 58 53 51 46 49 44 46 45 45 47 50 56 70 66 72 77 80 83 83 86 85 67 64 63 58 59 62 61 70 72 68 71 70 68 68 68 70 68 69 61 70
63 60 58 58 56 56 56 53 48 46 45 46 50 59 68 67 68 69 71 69 68 64 64 60 61 63 59 56 72 71 76 76 76 75 65 64 66 65 70 66 79 75 78
61 59 56 55 56 56 56 47 47 49 50 50 53 55 66 66 72 70 68 68 64 61 57 58 64 72 51 76 72 76 81 77 75 76 74 74 66 66 71 73 74 77 87
65 64 62 59 58 60 52 50 48 50 49 51 51 50 60 63 66 63 64 61 65 59 60 61 72 73 76 75 71 74 81 80 80 81 80 65 51 71 76 77 79 78 78
71 67 64 60 56 54 52 50 41 50 56 49 49 54 66 61 63 72 63 59 57 59 60 73 75 74 61 74 75 80 85 86 83 82 79 76 79 81 76 76 86 88 90
74 67 59 56 54 41 35 37 39 37 36 63 69 72 70 71 77 68 64 54 55 63 70 78 81 83 83 79 82 82 94 94 92 82 82 76 77 75 73 95 98 93 92
62 59 37 31 33 36 36 39 35 35 49 50 71 74 79 80 92 84 67 56 60 78 84 84 90 85 90 81 76 84 99 99 91 89 77 76 72 80 92 94 98 97 88
32 29 29 31 33 34 36 34 37 39 53 59 66 76 82 76 78 61 54 57 76 91 98 98 93 88 87 88 69 80 95 92 93 87 83 79 76 79 84 91 97 94 90
28 28 32 34 33 33 34 39 40 48 58 61 68 90 87 77 57 63 64 67 84 92 96 96 96 95 93 72 75 70 66 69 92 89 86 90 89 93 90 91 94 96 97
33 34 36 37 38 38 40 44 49 54 67 77 86 86 79 74 69 63 72 78 85 94 96 96 97 97 93 92 74 70 68 75 87 86 86 91 91 82 92 93 91 96 97
37 35 38 41 45 44 41 50 56 68 73 92 90 87 89 87 81 74 78 95 96 96 96 97 97 98 96 96 93 83 97 86 85 90 89 96 86 88 94 94 92 95 96
42 44 48 50 50 48 49 53 62 73 80 88 83 90 96 87 83 79 86 92 89 90 95 96 97 98 99 94 75 72 80 82 86 92 93 91 89 90 90 91 92 93 90
48 49 53 56 56 57 60 66 77 81 87 92 83 89 98 96 95 96 94 78 81 80 79 80 88 94 79 72 68 65 67 66 82 89 95 96 95 95 94 94 93 91 93

GFSMW_sfc_rhum_036.txt.gz
RH
59 60 63 67 65 78 68 69 77 82 84 84 83 76 76 67 68 61 60 62 61 65 70 73 73 76 77 81 81 85 83 80 89 92 76 85 77 82 83 82 84 77 78
59 60 68 83 79 84 79 64 58 60 62 66 70 74 77 71 63 63 61 60 64 61 56 70 72 75 79 79 81 86 91 92 94 96 96 93 77 86 64 71 71 93 87
63 63 66 77 76 71 66 60 58 59 63 63 64 67 70 70 67 67 67 68 66 64 65 68 74 80 85 90 94 94 93 96 95 93 91 96 98 78 72 58 82 89 88
60 60 64 67 65 65 62 59 56 58 59 64 64 66 72 68 72 71 72 72 67 66 67 73 84 90 92 93 91 86 93 85 87 91 75 88 90 95 78 79 67 82 75
63 64 64 62 63 59 63 62 58 59 61 64 67 73 70 72 69 71 74 70 68 69 75 84 87 90 92 94 94 94 93 94 94 95 96 93 94 94 97 90 83 81 90
63 63 63 62 68 71 68 66 58 57 61 68 71 71 71 71 71 75 77 75 74 86 87 84 90 93 94 95 96 94 93 95 95 96 96 85 84 84 90 84 78 80 86
58 63 65 68 70 70 65 58 54 57 67 68 68 70 72 73 75 80 78 74 77 92 91 89 91 94 93 92 93 94 95 97 98 97 95 94 92 93 93 96 96 90 83
49 56 59 64 60 57 59 60 58 61 64 59 58 59 64 70 71 75 78 82 87 91 91 89 88 88 86 87 91 95 96 96 96 95 97 97 91 96 93 95 99 97 89
49 49 57 57 57 58 62 60 58 52 51 51 55 57 58 63 76 78 79 82 81 77 88 88 90 90 91 89 92 95 95 95 95 95 96 97 96 98 98 98 96 99 97
46 53 52 56 59 60 62 59 50 46 45 46 52 54 60 72 76 78 78 80 82 81 84 86 89 88 82 84 90 92 90 93 93 94 97 96 95 95 96 94 90 94 96
49 54 56 58 57 58 52 46 44 43 45 43 53 58 62 71 76 80 84 86 86 87 87 87 86 82 84 82 83 82 82 82 77 73 73 71 68 74 76 79 81 85 90
54 56 58 56 56 56 45 45 45 41 44 47 54 55 60 75 80 84 84 84 80 84 87 87 85 80 80 81 77 74 72 72 73 72 70 67 51 70 74 81 81 76 72
65 64 59 56 55 56 54 47 47 46 45 48 51 54 60 76 79 84 84 82 83 85 87 86 82 72 71 68 70 72 73 72 73 74 73 70 70 72 74 77 80 79 66
66 64 63 61 60 59 61 60 56 51 48 50 52 57 62 76 77 82 84 84 86 86 84 73 67 67 67 64 65 67 75 76 73 77 77 77 77 77 79 78 87 79 83
66 64 64 64 62 62 63 61 57 54 54 53 54 58 64 75 73 80 78 81 74 68 68 61 67 69 64 59 77 74 76 78 79 78 75 74 71 61 63 70 85 93 91
66 67 64 62 60 59 63 64 63 61 60 59 57 59 63 70 76 78 82 73 69 75 59 64 70 69 55 76 72 76 84 77 77 80 76 79 68 66 69 72 73 78 82
73 71 68 67 65 67 64 57 53 53 54 58 62 64 64 72 75 75 83 89 96 68 59 70 74 77 78 75 71 78 85 85 86 86 82 76 61 73 76 80 77 78 78
74 73 72 69 64 62 46 46 42 43 48 62 67 73 74 74 78 88 89 88 85 72 63 79 77 77 68 76 78 82 92 94 92 91 89 87 82 82 76 77 88 92 90
77 76 73 65 50 40 40 41 43 44 57 67 75 76 82 84 91 91 96 94 91 67 81 80 83 85 87 81 78 88 96 93 92 83 84 76 80 75 74 94 93 88 89
72 62 48 34 37 37 39 43 44 49 66 68 72 76 83 90 93 96 95 89 68 82 83 83 88 81 89 71 71 75 99 99 89 87 78 74 71 76 82 93 96 96 87
34 35 37 38 38 40 42 46 46 57 63 67 72 85 90 93 84 87 71 76 87 90 94 96 90 88 83 84 68 67 91 90 88 85 81 81 80 90 87 82 96 96 91
36 38 42 43 42 44 50 49 52 53 66 76 85 87 89 86 79 67 70 77 90 90 98 97 96 96 93 70 71 65 66 70 93 92 88 93 90 77 81 92 93 93 93
42 42 46 49 52 52 54 57 55 61 74 88 91 92 87 87 82 72 75 82 85 95 97 98 97 97 93 94 73 73 70 76 91 90 87 86 76 80 88 89 90 95 95
48 48 52 57 63 61 59 66 65 75 82 90 89 87 87 92 78 75 74 91 97 97 97 98 97 98 94 97 94 89 95 86 89 95 93 91 85 87 91 91 92 96 96
54 55 61 68 67 66 63 67 84 84 98 99 88 82 92 99 93 83 87 93 89 92 96 97 97 99 99 95 80 80 86 84 87 94 96 90 89 89 88 88 91 93 93
61 64 68 71 72 64 70 73 90 90 94 99 97 92 95 97 94 95 94 82 83 82 81 84 93 96 85 77 69 71 67 61 72 94 99 97 96 95 92 93 92 90 92

GFSMW_sfc_rhum_039.txt.gz
RH
74 72 70 68 75 85 87 88 84 86 85 87 84 83 83 86 80 56 57 57 57 59 64 65 72 77 76 79 79 85 85 86 95 95 82 88 83 88 77 78 88 92 78
70 71 76 84 84 88 86 78 75 69 76 67 75 78 78 71 70 65 67 65 64 63 62 70 71 70 72 80 90 94 94 96 96 96 97 95 76 83 57 74 75 92 90
73 75 77 88 86 79 67 62 64 64 66 69 70 73 74 74 70 71 72 70 66 66 68 74 81 88 91 95 94 94 91 96 95 93 92 91 95 87 74 62 81 89 84
68 69 75 72 69 72 69 64 64 64 63 64 67 66 70 70 76 76 76 74 69 72 77 83 88 92 93 93 94 88 94 94 96 95 82 93 96 98 96 80 78 80 78
66 64 60 61 64 69 69 69 66 65 68 69 72 74 75 75 74 74 75 73 74 79 82 85 89 91 94 94 95 96 96 96 96 97 97 96 97 96 96 92 80 73 81
67 64 68 64 69 74 68 63 59 64 71 72 72 72 71 70 72 76 77 77 80 91 89 85 89 91 92 93 95 95 94 96 97 97 97 85 81 80 85 86 94 93 86
70 70 68 64 64 68 66 62 64 72 71 69 69 70 72 74 77 82 82 80 84 94 90 87 88 92 92 91 92 93 94 96 97 96 98 96 95 92 93 97 96 93 82
57 60 61 64 65 63 65 65 71 68 58 54 58 63 63 68 73 78 84 86 88 89 89 91 92 90 89 90 90 94 95 95 97 95 96 98 98 95 90 93 99 95 88
57 54 64 62 54 59 68 68 58 51 52 54 57 58 62 67 76 78 82 84 86 84 91 92 92 91 92 92 91 96 95 95 96 96 96 97 97 98 98 99 97 97 92
57 59 64 59 59 66 63 59 50 48 49 51 55 55 62 74 77 82 82 84 84 83 86 89 91 93 92 92 92 92 90 91 94 94 93 91 90 85 88 86 90 91 89
67 63 60 57 54 53 48 49 46 45 47 46 53 61 62 75 81 83 84 87 88 88 89 89 91 90 86 85 88 86 80 76 75 76 75 74 71 72 70 78 80 82 88
63 59 55 56 56 59 47 47 48 48 48 50 54 57 63 69 82 87 88 90 88 83 85 87 89 85 77 75 72 74 75 74 75 75 75 74 56 74 77 80 82 82 82
70 66 63 62 57 59 62 60 58 55 50 51 56 60 61 67 80 85 88 88 86 83 87 86 87 77 67 69 72 72 72 72 73 77 79 78 78 82 84 81 83 86 77
69 65 61 59 58 59 65 68 68 64 60 58 59 63 65 66 76 83 87 89 87 92 86 86 74 68 68 65 66 68 73 76 74 78 78 77 81 84 83 78 93 84 92
69 67 65 63 64 66 69 70 66 63 63 62 64 68 71 72 77 82 84 86 91 83 86 88 71 71 66 60 74 72 76 79 79 78 75 74 75 68 64 65 77 84 87
69 69 67 66 67 68 70 59 54 53 56 55 67 70 70 72 80 83 85 87 93 95 93 84 75 71 57 75 74 79 87 80 80 84 79 78 77 75 68 67 70 74 86
77 76 74 73 69 66 55 46 48 49 51 62 68 73 75 75 75 76 91 95 96 94 86 74 74 73 76 75 73 79 90 93 93 92 90 81 64 72 74 77 77 77 78
75 74 72 62 58 46 40 46 43 48 54 67 73 78 81 85 85 90 93 92 94 93 88 81 78 76 70 78 78 84 93 93 90 87 87 86 84 82 75 81 90 86 84
78 78 69 50 39 39 41 45 49 49 62 69 74 75 82 89 93 93 88 92 95 91 84 81 78 84 87 72 73 87 92 87 84 77 80 76 78 75 76 90 94 88 83
60 40 36 38 42 43 48 53 52 53 64 69 72 77 89 94 95 94 96 96 81 85 84 79 83 79 82 70 67 71 98 99 87 83 74 75 74 80 92 95 95 96 84
39 40 45 47 47 51 56 59 60 60 56 70 79 88 91 92 92 93 78 90 87 86 93 95 89 87 81 86 66 64 93 93 88 86 86 83 84 76 73 81 96 96 94
44 45 50 53 55 58 63 67 70 63 64 79 88 91 91 88 86 83 71 82 93 91 97 97 95 96 95 71 72 66 71 72 96 93 90 94 73 72 77 87 88 89 94
49 50 57 59 63 65 68 74 71 74 82 85 89 96 87 93 91 75 81 84 83 95 96 99 98 97 93 93 78 78 78 76 94 91 80 74 73 76 87 82 89 93 94
56 57 61 67 72 71 70 73 78 91 92 92 96 97 90 88 92 97 83 92 97 98 98 98 98 98 94 97 95 91 98 83 89 91 93 92 86 86 88 89 90 94 95
60 63 69 74 75 75 73 75 83 95 88 90 91 99 94 99 96 89 86 88 89 93 97 97 97 100 100 96 85 80 94 91 91 94 97 96 92 89 86 86 88 90 89
66 71 75 77 79 77 79 84 75 80 96 95 91 98 99 98 95 90 90 82 82 85 83 84 95 97 89 84 73 66 66 64 67 94 100 100 100 98 92 92 91 88 89

GFSMW_sfc_rhum_042.txt.gz
RH
79 81 82 88 92 94 93 93 94 95 94 93 88 80 83 83 74 66 62 62 63 65 69 73 74 77 77 85 86 90 89 90 95 96 84 89 87 82 71 78 88 81 77
80 80 84 89 90 91 89 89 85 84 77 71 78 76 76 76 73 73 70 66 66 67 66 75 79 82 84 90 92 93 94 94 96 95 95 90 76 80 66 73 75 86 83
82 83 83 90 90 80 71 65 64 63 68 74 77 79 78 77 72 74 74 72 70 72 75 80 85 90 91 92 93 94 92 96 94 93 93 91 93 93 77 76 83 84 84
84 82 84 75 71 73 72 68 66 64 65 68 66 66 70 71 78 80 80 75 74 80 83 87 90 92 93 91 94 90 96 96 96 94 85 92 96 99 88 81 77 79 75
74 72 70 67 70 75 74 71 70 70 71 72 72 77 78 82 81 82 80 78 83 86 86 87 87 86 89 92 94 94 95 97 98 98 97 94 94 95 91 84 65 81 84
71 67 70 69 71 72 72 67 61 68 71 73 74 76 74 74 76 81 83 84 88 92 87 82 85 88 90 91 93 93 93 95 97 98 83 82 80 75 84 85 82 83 83
74 71 71 72 69 67 65 61 67 72 68 70 72 73 74 73 71 76 81 81 84 90 89 88 89 90 90 91 93 94 93 94 97 95 97 98 97 94 92 95 91 97 86
71 74 67 70 69 69 66 63 70 66 57 59 60 61 59 64 68 73 82 85 88 90 88 91 91 90 91 92 92 95 96 95 97 97 97 97 97 98 97 96 99 94 81
64 65 71 69 67 69 70 73 59 52 53 54 58 58 60 63 71 77 85 86 87 83 88 91 92 92 93 93 93 96 95 94 95 96 96 98 98 98 97 96 96 95 93
69 71 68 66 68 63 62 56 49 50 51 53 56 56 61 67 77 82 82 85 86 87 89 90 91 92 93 94 94 96 93 93 93 90 82 81 83 82 86 82 84 87 92
71 67 65 63 60 51 50 51 48 45 47 50 55 61 65 69 82 86 87 87 89 90 88 88 90 92 92 88 88 87 78 75 75 75 74 74 73 75 76 77 80 82 87
69 66 64 59 57 56 56 51 53 56 56 57 59 61 66 68 73 82 86 90 92 91 87 87 90 89 86 79 72 72 72 71 71 71 76 77 61 75 78 81 81 80 81
71 70 67 65 59 60 63 63 70 71 64 60 63 64 67 70 71 75 82 90 92 91 89 90 91 88 79 70 70 71 70 71 74 77 78 78 74 76 80 80 82 83 78
71 70 68 66 63 61 66 69 61 61 59 58 61 68 71 72 75 80 84 88 90 92 93 89 88 84 74 67 65 67 71 74 74 77 79 79 77 77 78 77 77 75 81
71 69 67 64 62 65 65 59 57 56 57 56 65 71 75 74 76 78 81 88 92 91 94 96 95 88 66 58 70 72 76 80 81 81 77 77 76 74 72 70 76 76 81
75 73 70 69 66 64 61 49 48 50 56 56 70 74 76 76 78 81 85 92 95 95 92 96 98 78 60 75 75 83 91 88 88 91 85 83 77 80 71 70 70 70 79
72 72 77 73 65 58 48 45 49 51 56 60 68 76 79 82 85 87 92 95 94 92 91 88 81 77 75 74 74 84 85 86 86 80 78 72 61 72 74 76 76 76 77
70 76 74 59 53 44 44 50 50 54 57 65 72 78 80 85 90 93 94 91 91 93 90 85 80 76 75 76 81 82 84 84 80 76 76 78 80 78 73 76 85 82 76
75 74 68 49 43 46 49 53 56 56 58 66 74 76 82 92 94 95 95 95 96 96 90 83 79 80 83 70 72 75 90 82 79 72 75 75 79 79 79 94 92 83 78
63 43 41 44 49 52 57 62 65 68 71 70 73 81 90 93 94 95 95 97 88 85 86 78 80 79 79 71 66 71 96 96 87 82 75 78 76 76 72 90 96 95 84
39 43 49 51 54 59 64 70 74 75 74 76 78 88 86 91 93 95 84 86 88 91 96 94 87 87 82 85 68 66 94 92 90 86 85 83 81 71 73 78 93 95 92
44 48 53 58 62 66 72 76 79 78 87 90 92 93 95 94 87 95 83 80 99 92 97 97 95 94 94 75 75 69 74 74 96 92 90 90 71 69 73 80 86 87 92
50 53 58 62 66 72 76 77 76 85 94 93 83 80 91 96 91 76 83 89 91 96 96 98 98 97 91 94 80 76 80 76 94 90 76 73 72 75 84 76 82 90 92
56 57 63 69 74 76 78 78 80 90 94 81 89 92 97 95 97 98 93 97 98 98 98 98 98 98 95 97 95 93 97 84 85 91 90 93 88 89 86 84 85 91 92
58 64 72 77 78 81 81 82 88 78 77 92 92 96 98 98 98 94 92 94 93 92 96 96 97 100 100 96 90 85 96 95 91 94 96 95 93 91 88 86 84 85 82
66 72 77 82 87 89 89 89 73 68 76 89 91 93 100 100 98 98 94 81 84 84 83 87 94 98 91 85 81 66 65 63 67 90 100 100 100 100 95 94 91 86 82

GFSMW_sfc_rhum_045.txt.gz
RH
72 74 79 82 83 82 83 91 97 97 96 90 74 62 63 57 50 44 49 50 49 51 56 51 53 54 54 60 60 54 57 48 55 49 40 41 58 60 46 44 46 49 46
68 71 72 78 79 81 82 90 86 87 76 60 53 50 50 49 48 49 54 52 55 55 53 58 56 59 53 60 62 62 54 50 57 55 48 39 40 47 48 45 47 56 44
60 63 66 70 74 75 73 64 62 64 60 57 55 54 53 54 50 50 47 53 57 58 60 62 61 62 57 54 60 62 65 56 57 67 58 51 45 55 42 50 50 55 50
62 60 59 57 58 57 57 51 52 51 55 56 52 52 45 44 54 54 52 50 61 62 60 61 62 62 58 59 58 56 65 66 59 58 58 67 74 75 64 44 45 45 48
57 56 51 49 52 58 59 59 56 55 56 58 57 54 59 59 57 57 61 61 62 63 61 62 62 60 56 59 63 62 62 60 64 60 65 67 59 60 71 58 45 43 45
56 51 50 51 52 61 62 59 54 55 59 59 61 61 62 58 51 53 53 54 56 58 63 59 62 62 61 61 60 65 68 65 65 62 63 62 62 60 67 78 66 66 50
55 53 52 53 55 55 56 54 53 56 56 57 55 55 53 48 44 44 44 49 51 56 60 65 65 60 64 66 66 68 69 70 69 70 68 70 71 69 72 82 87 86 70
56 55 54 54 55 58 52 53 54 51 46 47 48 47 44 40 41 46 46 50 52 52 59 64 66 67 68 69 71 73 72 75 80 78 74 74 71 72 83 88 97 89 51
56 54 56 60 57 55 58 61 48 43 42 47 46 45 46 48 50 54 59 57 60 57 64 68 69 69 70 72 74 74 74 77 77 76 77 75 74 72 65 65 62 74 77
57 57 55 58 54 55 51 52 47 46 43 40 45 44 49 50 54 60 62 63 62 63 65 66 67 66 67 69 73 73 67 75 76 69 60 57 55 56 59 55 58 59 64
57 54 51 48 43 43 42 42 45 43 42 41 45 49 48 50 52 53 56 57 63 63 67 67 63 62 66 69 69 66 64 60 58 56 54 55 54 50 48 47 46 48 53
52 50 50 48 48 50 52 57 59 54 49 45 47 46 48 51 52 51 51 57 59 63 67 69 66 67 68 68 65 62 54 55 54 53 54 52 44 52 48 46 47 46 46
54 52 49 48 49 56 54 48 48 39 38 35 37 42 49 49 49 50 54 53 58 62 68 72 73 71 70 74 72 56 54 54 54 53 54 54 54 53 50 51 50 49 47
54 52 49 49 49 51 50 40 39 39 36 35 37 48 53 53 53 54 53 61 65 69 70 70 73 78 81 82 68 52 54 54 54 58 58 58 57 57 56 56 59 61 60
54 51 50 50 47 46 41 36 34 35 38 39 41 52 57 56 54 56 62 66 72 73 73 80 81 95 80 65 58 54 58 59 60 59 57 57 62 71 65 56 55 60 59
53 52 53 51 47 43 37 35 35 37 42 41 45 52 60 56 58 62 68 72 74 72 70 77 79 67 56 75 75 70 60 60 54 50 46 43 51 50 64 66 68 66 67
56 59 58 49 47 37 35 34 37 41 43 43 45 52 60 59 60 63 66 69 72 74 76 72 66 65 58 74 78 79 55 53 50 46 43 43 44 56 52 60 65 64 68
58 60 52 45 36 33 35 42 40 44 47 48 49 51 58 61 64 68 67 71 76 79 71 74 64 58 58 72 78 76 58 56 49 47 48 50 54 56 66 63 82 62 53
58 53 41 35 34 37 42 44 44 48 49 51 56 57 61 66 69 67 71 72 78 74 76 72 62 60 58 65 70 65 65 62 58 55 54 55 60 71 75 80 78 66 56
54 39 33 36 40 43 47 48 49 50 54 61 66 63 67 72 72 72 70 71 62 61 65 63 62 70 64 66 65 65 74 84 69 60 52 62 65 72 73 82 85 83 68
33 35 37 38 42 48 52 53 52 53 59 65 66 69 73 78 74 70 66 64 69 75 94 99 71 68 70 71 69 68 80 76 73 64 59 58 69 69 68 71 77 90 80
38 39 41 42 46 50 56 54 55 53 64 69 72 67 63 64 76 72 63 65 85 92 95 95 88 74 82 73 72 72 70 73 79 72 64 66 67 67 69 70 74 80 81
39 42 43 48 51 52 58 62 59 62 70 71 73 66 63 68 70 71 73 73 72 83 92 85 79 78 74 72 78 77 76 75 77 70 67 69 70 68 68 68 71 75 78
44 44 48 50 55 56 62 63 65 70 66 72 71 72 71 73 74 73 73 72 76 76 73 77 81 82 74 74 75 73 76 74 69 72 62 74 73 71 70 66 67 71 70
48 51 56 59 61 65 68 67 67 66 63 69 74 76 79 83 78 72 66 68 70 79 82 76 82 89 86 76 81 81 80 76 70 76 71 65 67 64 60 64 64 62 58
54 58 63 66 67 72 72 68 63 57 64 78 78 86 86 83 79 72 68 77 85 84 82 83 92 90 89 86 84 78 68 65 65 66 73 78 81 76 65 70 69 66 62

GFSMW_sfc_rhum_048.txt.gz
RH
48 52 56 55 56 62 66 70 76 82 92 91 80 64 50 46 42 34 40 40 40 43 46 39 43 44 46 49 47 41 40 35 36 40 30 28 29 43 35 34 33 36 35
53 60 59 60 59 63 66 66 64 66 60 54 43 40 39 34 33 36 44 43 46 46 43 48 44 46 39 43 45 45 40 35 35 46 44 31 26 24 34 35 36 42 38
52 55 58 60 62 65 61 54 54 55 49 42 40 41 41 38 36 38 37 43 46 46 48 48 44 43 40 36 43 43 46 41 37 41 47 45 38 41 31 34 32 40 36
44 43 40 42 45 49 47 43 46 43 44 44 38 38 32 33 39 40 40 38 48 47 43 42 42 43 41 44 40 35 48 45 43 36 33 43 47 57 49 35 31 31 31
43 34 32 34 34 43 43 41 38 38 42 44 41 40 42 42 40 40 44 46 44 44 39 39 43 44 40 42 48 50 49 44 44 41 41 43 42 42 53 58 40 33 31
38 32 31 34 38 49 49 47 42 42 44 44 46 47 48 42 35 34 34 31 31 32 36 36 42 44 45 48 48 50 50 50 49 45 51 57 64 66 68 72 66 56 39
36 35 36 36 38 43 46 44 40 42 43 45 43 41 39 36 34 35 32 33 29 30 33 37 43 42 46 51 51 50 52 53 53 55 53 54 52 52 54 62 56 54 42
36 35 36 38 39 43 42 41 40 40 39 39 37 36 34 31 32 33 35 34 34 35 39 44 46 49 52 53 53 53 52 56 60 58 56 49 47 51 53 60 67 68 41
38 38 39 41 42 44 46 46 41 37 37 41 40 39 38 38 37 40 41 41 44 39 44 48 51 50 52 53 54 55 56 55 60 62 61 53 42 43 39 38 39 53 60
40 39 41 47 44 44 46 46 37 35 34 34 40 36 36 36 39 43 43 42 41 40 43 44 44 44 47 50 53 52 48 54 56 49 47 45 39 38 37 33 35 36 40
41 43 43 44 43 40 39 36 33 33 40 41 42 39 35 32 32 34 34 34 36 32 33 34 39 42 45 50 54 56 52 58 51 47 46 44 41 39 38 37 36 36 36
41 40 40 38 36 36 36 43 42 43 48 42 30 28 29 30 30 31 32 35 35 37 38 41 45 46 50 55 61 60 65 61 52 45 44 44 33 44 41 37 39 39 38
40 39 39 38 38 42 44 44 39 35 26 22 24 26 28 29 30 32 34 36 39 42 42 45 48 49 56 59 64 65 72 58 48 46 47 47 45 44 40 41 41 40 35
40 39 38 37 38 41 36 33 32 26 24 24 23 25 30 33 34 36 38 42 43 46 48 49 58 72 75 71 78 63 55 52 47 49 50 46 46 46 46 43 43 38 38
41 39 37 36 35 33 33 28 25 26 27 25 24 28 35 36 37 40 43 45 49 48 49 56 62 65 62 51 56 50 50 49 48 47 41 41 45 53 53 47 47 47 46
40 37 34 34 33 31 25 25 26 28 29 27 28 30 35 37 42 44 48 48 47 48 53 52 53 54 44 75 72 71 47 46 43 41 39 36 42 42 57 60 62 60 57
40 37 36 36 32 28 24 25 26 29 30 30 28 30 34 38 43 42 45 48 52 54 59 61 57 58 54 72 79 70 46 46 43 42 39 36 30 48 42 54 61 65 78
39 38 40 35 28 24 25 30 26 28 31 31 32 33 37 40 42 46 49 48 54 60 66 72 68 58 49 74 74 72 49 48 46 44 44 43 44 46 61 56 65 57 52
37 38 34 28 25 26 28 28 28 28 29 32 36 38 44 45 47 48 52 50 56 56 52 69 68 58 55 66 73 66 55 56 54 48 45 46 48 59 67 73 77 65 58
37 33 27 26 28 30 32 31 27 30 33 36 42 43 46 49 52 54 53 52 52 52 52 52 56 64 60 66 65 64 67 86 65 53 45 59 56 66 66 74 79 84 65
32 27 28 29 29 33 34 33 31 33 34 41 46 47 47 48 51 60 59 51 50 68 82 92 76 59 62 66 68 68 78 72 68 60 51 49 63 64 66 66 72 81 68
30 30 31 29 31 32 35 30 30 31 40 45 49 50 49 45 45 57 53 51 58 75 98 100 90 70 67 71 68 73 73 68 79 69 56 59 64 65 66 67 68 67 70
31 33 31 35 34 34 34 37 36 42 48 51 51 51 49 47 46 55 57 64 61 68 84 87 79 75 66 60 76 77 76 74 78 67 66 67 62 60 60 59 64 65 64
38 36 34 32 34 36 39 42 46 50 50 50 54 65 72 61 53 54 55 60 64 68 69 76 82 82 72 64 64 72 71 78 78 66 60 64 71 62 58 56 56 62 63
49 37 38 40 38 41 44 44 48 52 52 52 55 62 64 71 68 60 56 56 53 61 66 65 80 90 86 75 76 76 71 76 68 77 73 63 60 53 50 53 54 55 53
40 40 40 43 42 43 45 43 43 46 51 57 55 64 73 69 71 68 67 74 78 80 83 83 84 87 81 83 83 82 78 71 67 68 72 77 78 71 57 60 59 56 56